Regional Weather Roundup
Issued by NWS Wakefield, VA

Home | Current Version | Previous Version | Graphics & Text | Print | Product List | Glossary On
Versions: 1 2 3 4 5 6 7 8 9 10 11 12 13 14 15 16 17 18 19 20 21 22 23 24 25 26 27 28 29 30 31 32 33 34 35 36 37 38 39 40 41 42 43 44 45 46 47 48 49 50
000
ASUS41 KAKQ 010310
RWRAKQ

REGIONAL WEATHER ROUNDUP
NATIONAL WEATHER SERVICE WAKEFIELD VA
1100 PM EDT SUN AUG 31 2014

Note: "fair" indicates few or no clouds below 12,000 feet with no
significant weather and/or obstructions to visibility. * = Denotes
station may not report precipitation (e.g., rain,snow,etc.),
thunder or fog.

VAZ042-051-052>054-056-010400-
NORTHERN VIRGINIA

CITY           SKY/WX    TMP DP  RH WIND       PRES   REMARKS
WASH NATIONAL  CLOUDY    77  72  83 VRB3      30.05S
DULLES         MOCLDY    71  70  96 CALM      30.05S
FORT BELVOIR   CLOUDY    73  72  96 CALM      30.05S
QUANTICO       CLOUDY    74  71  91 W5        30.05S
FREDERICKSBRG* MOCLDY    77  72  86 CALM      30.04S
STAFFORD*      MOCLDY    72  72 100 CALM      30.09S
WARRENTON      CLOUDY    74  74 100 CALM      30.05R
CULPEPER*      MOCLDY   N/A N/A N/A CALM      30.05S
MANASSAS*      MOCLDY    73  72  94 NW3       30.05R
LEESBURG*      MOCLDY    73  73 100 CALM      30.05S
WINCHESTER     CLOUDY    73  72  94 CALM      30.05S
$$

VAZ048-049-060>072-079>083-010400-
CENTRAL AND SOUTH CENTRAL VIRGINIA...AND NORTH CENTRAL NORTH CAROLINA

CITY           SKY/WX    TMP DP  RH WIND       PRES   REMARKS
RICHMOND       CLOUDY    79  72  79 S6        30.05S
CHESTERFIELD*  MOCLDY    79  64  61 S5        30.08R
PETERSBURG*    MOCLDY    77  70  79 S3        30.07R
HANOVER        MOCLDY    82  71  69 SW6       30.07R
TAPPAHANNOCK*  MOCLDY    79  69  69 S3        30.06R
CHARLOTTSVILLE MOCLDY    76  70  82 CALM      30.06S
ORANGE*        MOCLDY    72  70  94 CALM      30.07S
LOUISA*        MOCLDY    77  72  83 CALM      30.05S
FARMVILLE*     MOCLDY    77  75  94 CALM      30.05R
SOUTH HILL*    MOCLDY    79  75  89 S6        30.13S
ROANOKE RAPIDS PTCLDY    77  72  83 S8        30.09R
RALEIGH        MOCLDY    81  71  71 S9        30.10R
$$

VAZ088>098-010400-
SOUTHEAST VIRGINIA

CITY           SKY/WX    TMP DP  RH WIND       PRES   REMARKS
NORFOLK        CLEAR     81  72  74 S12       30.07S
VIRGINIA BEACH PTCLDY    80  74  81 S12       30.08R
NORFOLK NAVAL  PTCLDY    82  73  74 S10       30.09S
WEST POINT*    PTCLDY    82  71  69 CALM      30.07R
NEWPORT NEWS   CLEAR     85  73  67 S13       30.07S
LANGLEY AFB    CLEAR     81  74  78 SW9       30.07R
FORT EUSTIS    CLEAR     81  72  75 VRB7      30.05S
WILLIAMSBURG*  CLEAR     82  75  78 S7        30.08R
FRANKLIN*      CLEAR     79  72  78 S6        30.08S
WAKEFIELD      CLEAR     79  72  79 S3        30.07S
$$

VAZ020-022-025-037-045-010400-
WESTERN AND SOUTHWEST VIRGINIA

CITY           SKY/WX    TMP DP  RH WIND       PRES   REMARKS
STAUNTON*      MOCLDY    74  69  84 CALM      30.12R
HOT SPRINGS VA CLOUDY    66  64  93 W15       30.25R
LYNCHBURG      MOCLDY    72  70  93 CALM      30.10S
DANVILLE       MOCLDY    75  71  87 CALM      30.08F
MARTINSVILLE   CLEAR     72  72 100 CALM      30.14R
ROANOKE        MOCLDY    78  69  73 SE3       30.12R
BLACKSBURG     CLOUDY    73  72  94 CALM      30.18S
DUBLIN*        CLOUDY    74  70  88 SW3       30.18R
MARION*        RAIN     N/A N/A N/A SW3       30.23S
HILLSVILLE*    MOCLDY    71  66  82 SW3       30.20S
RICHLANDS*     CLOUDY    75  67  78 S9        30.19F
WISE*          CLOUDY    70  63  78 S7        30.19F
ABINGDON*      CLOUDY    74  71  92 SW6       30.18S
$$

MDZ021>025-VAZ099-100-010400-
SOUTHERN MARYLAND AND THE DELMARVA PENINSULA

CITY           SKY/WX    TMP DP  RH WIND       PRES   REMARKS
PATUXENT RIVER MOCLDY    80  73  79 SW6       30.04R
BAY BRIDGE APT TSTM      73  73 100 NW7       30.04R
LEONARDTOWN    CLOUDY    81  70  69 W13       30.07R
DOVER          LGT RAIN  74  74 100 E6        30.02F
GEORGETOWN     MOCLDY    78  72  81 S15       30.04S
EASTON         DRIZZLE   80  80 100 S5        30.06F
CAMBRIDGE      MOCLDY    79  73  83 S7        30.03R
SALISBURY      PTCLDY    79  73  82 S8        30.04F
OCEAN CITY     PTCLDY    79  74  84 SW15      30.05F
WALLOPS ISLAND CLEAR     79  75  87 SW14      30.06S
ACCOMACK*      NOT AVBL
$$

NCZ012>017-030>032-010400-
EASTERN NORTH CAROLINA

CITY           SKY/WX    TMP DP  RH WIND       PRES   REMARKS
ELIZABETH CITY CLEAR     78  74  87 S8        30.10S
AHOSKIE*       CLEAR     76  72  86 S6        30.10S
EDENTON*       CLEAR     78  73  85 S8        30.11R
CURRITUCK*     CLEAR     79  73  79 CALM      30.11R
KILL DEVIL HLS CLEAR     80  75  87 SW6       30.11S
MANTEO         CLEAR     80  75  86 S12       30.12S
CAPE HATTERAS  PTCLDY    80  76  87 SW7       30.14R
GOLDSBORO      CLEAR     78  78  98 S7        30.09S
WASHINGTON     CLEAR     78  73  87 S3        30.12S
GREENVILLE     CLEAR     79  73  83 SW8       30.12S
NEW BERN       CLEAR     79  74  84 S3        30.13S
WILMINGTON     PTCLDY    78  75  90 S5        30.12S
$$

VAZ048-010400-
ELSEWHERE

CITY           SKY/WX    TMP DP  RH WIND       PRES   REMARKS
HARRISBURG PA  CLOUDY    74  70  87 CALM      30.01F
BALTIMORE      RAIN      74  73  97 SW3       30.04R FOG
ANNAPOLIS      RAIN      75  72  90 CALM      30.04R FOG
ANDREWS AFB    CLOUDY    74  74  99 S6        30.05F
WILMINGTON DE  HVY RAIN  75  73  93 VRB5      30.04S FOG
PHILADELPHIA   LGT RAIN  74  71  91 CALM      30.03F
WILDWOOD NJ*   CLOUDY    79  72  78 W7        30.06R
ATLANTIC CITY  HVY RAIN  72  71  97 W8        30.06S FOG
HENDERSON NC   PTCLDY    78  69  73 S7        30.09S
GREENSBORO     CLEAR     78  70  76 SW6       30.10S
ROCKY MOUNT    CLEAR     79  73  82 S6        30.10R
FAYETTEVILLE   CLEAR     80  73  79 S9        30.10S
CHARLOTTE      PTCLDY    76  70  82 CALM      30.12S
$$

VAZ100-010400-
MARINE

STATION/POSITION TIME  TEMP    WIND        PRES    WAVE   SWELL
                       AIR SEA DIR/SP/G            HT/PER HT/PER
                 (UTC) (F)     (DEG/KT/KT) (MB)    (FT/S) (FT/S)
44066 TX TWR #4  0300   75 73  210/ 17/ 21 1017.0F   4/ 5   2/ 9
CAPE MAY NJ      0300   78 80  190/  8/ 15 1016.6S
LEWES DE         0300   79 76  210/  7/ 11 1016.8S
15NM E FENWICK I 0300   76 74              1017.1F   4/ 5
OCEAN-CITY-INLET 0300   77 79  210/ 15/ 18 1017.3F
WACHAPREAGUE VA  0300   80 83  210/  9/ 13 1018.0F
THOMAS POINT MD  0300   74 79  260/ 12/ 13 1018.5R
GOOSES REEF MD   0300   80      10/  2/  2 1017.5R
COVE POINT MD    0300   81     280/  3/  4 1017.1R
SOLOMONS ISLAND  0300      80                N/A
BISHOPS HEAD MD  0300   81 80  190/ 15/ 17 1016.7R
PINEY POINT MD   0300          220/  6/  7   N/A
POTOMAC MD       0300   80     200/  6/  8 1016.7R
CAMBRIDGE MD     0300   80 78  190/  5/ 10 1016.6R
LEWISETTA VA     0300   81 81  210/  8/  9 1016.9S
RAPPAHANNOCK LGT 0300          170/ 11/ 12 1018.3R
STINGRAY PT      0300   82     200/ 10/ 12   N/A
YORK RVR RNG VA  0300   82     210/ 14/ 16 1017.4S
YORKTOWN VA      0300   82 81  190/  9/ 12 1017.6R
JAMESTOWN VA     0300   79     210/  8/ 10   N/A
DOMINION TERM VA 0300   81     210/ 13/ 15 1018.2S
KIPTOPEKE VA     0300      83  200/ 13/ 14   N/A
CHES BAY BRIDGE  0300   81 80  180/ 12/ 14 1017.8S
CAPE HENRY VA    0300   80     190/ 12/ 16 1017.3R
CHESAPEAKE LGHT  0200   80     190/ 20/ 22 1019.0R
WILLOUBY STN VA  0300   81     200/ 17/ 20 1016.9S
S CRANEY ISL VA  0300          180/ 10/ 15 1018.0F
CAPE HENRY BUOY  0300      79                N/A     3/ 9
1ST LANDING BUOY 0300   81     200/ 14/ 16 1018.0R
CAPE CHARLES BUO 0300      79                N/A     3/ 9   2/ 9
OFFSHORE WE BUOY 0300      77                N/A     4/ 9   2/ 9
64NM E OF VA BCH 0300   79 78  190/ 14/ 16 1019.0S   3/ 8   2/ 8
DUCK PIER NC     0300   80 76  190/ 11/ 15 1018.8R
44056 DUCK FRF   0300                        N/A     2/ 8
OREGON INLET NC  0300   81 82  190/ 13/ 15 1020.0R
HATTERAS NC      0300   81 84  220/ 10/ 13 1020.9R
DIAMOND SHLS NC  0300   80     180/ 14/ 16 1020.3R   4/ 8   3/ 8
CAPE LOOKOUT NC  0200   81     200/  8/  9 1020.2R
$$


USA.gov is the U.S. government's official web portal to all federal, state and local government web resources and services.